Miscellaneous Local Product
Issued by NWS Hastings, NE

Home | Current Version | Previous Version | Graphics & Text | Print | Product List | Glossary On
Versions: 1 2 3 4 5 6 7 8 9 10 11 12 13 14 15 16 17 18 19 20 21 22 23 24 25 26 27 28 29 30 31 32 33 34 35 36 37 38 39 40 41 42 43 44 45 46 47 48 49 50
000
AXUS43 KGID 232202
MISGRI

GID CWA HOURLY WEATHER ROUNDUP
NATIONAL WEATHER SERVICE HASTINGS NE
500 PM CDT THU OCT 23 2014

NOTE: "FAIR" INDICATES FEW OR NO CLOUDS BELOW 12,000 FEET WITH NO
SIGNIFICANT WEATHER AND/OR OBSTRUCTIONS TO VISIBILITY.

...SOUTH CENTRAL NEBRASKA...

CITY           SKY/WX    TMP DP  RH WIND       PRES   REMARKS
GRAND ISLAND   MOSUNNY   64  55  72 S8        30.01F
HASTINGS       MOSUNNY   62  53  72 S5        30.03S
KEARNEY        PTSUNNY   63  55  77 S13       30.02F
ORD            PTSUNNY   70  47  43 SW12      29.97S
YORK           SUNNY     70  52  52 SW8       30.02S
AURORA         SUNNY     65  56  72 SW9       30.02S
LEXINGTON      CLOUDY    70  53  54 S12       30.01F
HOLDREGE       CLOUDY    60  55  81 CALM      30.02S HAZE
HEBRON         SUNNY     73  54  52 W8        30.02R

...NEBRASKA PANHANDLE...

CITY           SKY/WX    TMP DP  RH WIND       PRES   REMARKS
CHADRON        MOSUNNY   74  36  25 W7        29.91F
ALLIANCE       PTSUNNY   73  31  21 W12       29.97F
SCOTTSBLUFF    MOSUNNY   76  31  19 W17G23    29.98F
SIDNEY         MOSUNNY   72  36  26 W15       30.04F

...WESTERN AND NORTH CENTRAL NEBRASKA...

CITY           SKY/WX    TMP DP  RH WIND       PRES   REMARKS
VALENTINE      PTSUNNY   74  31  20 SW9       29.92F
AINSWORTH      CLOUDY    71  35  26 SW9       29.94S
ONEILL         MOSUNNY   72  45  37 SW13G18   29.95F
BROKEN BOW     CLOUDY    69  49  48 S12       29.98F
IMPERIAL       MOSUNNY   78  34  20 W9        30.00F
NORTH PLATTE   CLOUDY    74  40  29 SW12      29.97F
MCCOOK         PTSUNNY   74  42  31 S13       30.01F

...EASTERN NEBRASKA...

CITY           SKY/WX    TMP DP  RH WIND       PRES   REMARKS
NORFOLK        SUNNY     69  46  43 S14       29.98F
SO SIOUX CITY  SUNNY     72  43  35 SW7       29.98S
TEKAMAH        SUNNY     72  47  40 S7        29.99S
COLUMBUS       SUNNY     70  50  49 S9        30.02S
ALBION         SUNNY     68  50  52 S12       29.99S
OMAHA EPPLEY   SUNNY     71  43  36 S3        30.01S
OFFUTT AFB     SUNNY     71  49  44 SE3       30.00F
MILLARD        SUNNY     70  52  53 S3        30.01S
LINCOLN        SUNNY     72  51  47 SE5       30.01F
NEBRASKA CITY  SUNNY     71  38  29 CALM      30.02R
BEATRICE       SUNNY     73  53  49 S5        30.01S
FALLS CITY     SUNNY     73  52  47 VRB3      30.01S

...NORTHERN KANSAS...

CITY           SKY/WX    TMP DP  RH WIND       PRES   REMARKS
GOODLAND       MOSUNNY   74  47  38 S6        30.06S
HILL CITY      MOSUNNY   73  54  51 S9        30.03F
NORTON         CLEAR     70  50  49 S12       30.02S
PHILLIPSBURG   SUNNY     68  61  77 E7        30.02F
SMITH CENTER   MOSUNNY   57  55  94 CALM      30.04F
BELOIT         SUNNY     70  59  68 CALM      30.01S
HAYS           MOSUNNY   73  57  56 SE7       30.03F
RUSSELL        PTSUNNY   74  55  51 S7        30.02S
CONCORDIA      MOSUNNY   73  56  54 SW6       30.02S
SALINA         MOSUNNY   74  58  57 S6        30.02S
TOPEKA         MOSUNNY   71  62  73 S8        30.03S



USA.gov is the U.S. government's official web portal to all federal, state and local government web resources and services.